Vertical_Velocity
-3 -3 -3 -2 -2 -2 -2 -2 -2 -2 -2 -2 -2 -2 -2 -1 -1 -1 -1 -1 -1 -1 -1 -2 -2 -2 -2 -2 -2 -2 -2 -2 -2 -2 -2 -2 -2 -2 -2 -2 -2 -2 -2 -2 -2 -2 -3 -4 -4 -4 -3 -3 -2 -2 -2 -2 -3 -3 -3 -3 -3 -3 -3 -3 -2 -2 -1 -1 -1 -1 -2 -2 -3 -3 -3 -2 -2 -2 -2 -1 -1 -0 -0 0 0 0 -0 -0 -1 -1 -1 -1 -1 -1 -1 -1 -1 -1 -0 -1 -1 -1 -1
-3 -3 -3 -3 -3 -3 -3 -3 -2 -2 -2 -2 -2 -2 -2 -2 -2 -2 -2 -2 -2 -2 -2 -2 -2 -2 -2 -2 -2 -2 -2 -2 -2 -2 -2 -2 -3 -3 -3 -3 -3 -3 -3 -3 -2 -2 -4 -4 -4 -3 -3 -3 -2 -2 -2 -2 -3 -3 -2 -2 -3 -3 -3 -3 -3 -3 -2 -2 -2 -2 -2 -2 -2 -3 -3 -3 -3 -3 -2 -2 -1 -1 -0 -0 0 0 -0 -0 -0 -1 -1 -1 -1 -1 -1 -1 -1 -1 -1 -1 -1 -1 -1
-4 -4 -3 -3 -3 -3 -3 -3 -3 -3 -3 -3 -3 -2 -2 -2 -2 -2 -2 -2 -2 -2 -2 -2 -2 -2 -2 -2 -3 -3 -3 -3 -3 -3 -3 -3 -3 -3 -3 -3 -3 -3 -3 -3 -2 -2 -4 -4 -3 -3 -2 -2 -2 -2 -3 -2 -3 -3 -2 -2 -2 -3 -3 -3 -3 -3 -3 -3 -3 -2 -2 -2 -2 -2 -2 -3 -3 -3 -3 -3 -2 -2 -1 -1 -1 -1 -0 -0 -0 -0 -1 -1 -1 -1 -1 -2 -2 -2 -1 -1 -1 -1 -0
-4 -4 -4 -3 -3 -3 -3 -3 -3 -3 -3 -3 -3 -2 -2 -2 -2 -2 -2 -2 -2 -2 -2 -2 -2 -3 -3 -3 -3 -3 -3 -3 -3 -3 -4 -3 -3 -3 -3 -3 -3 -3 -3 -3 -2 -2 -3 -3 -3 -2 -2 -2 -2 -2 -2 -2 -2 -2 -3 -3 -3 -2 -2 -2 -3 -3 -3 -4 -4 -3 -2 -1 -1 -1 -1 -2 -2 -3 -3 -3 -3 -3 -3 -2 -2 -2 -1 -1 -1 -1 -1 -1 -1 -1 -2 -2 -2 -2 -2 -2 -1 -1 -1
-4 -4 -4 -3 -3 -3 -3 -3 -3 -2 -3 -3 -2 -2 -2 -2 -2 -2 -2 -2 -2 -3 -3 -3 -3 -3 -3 -3 -3 -3 -3 -3 -3 -3 -3 -3 -3 -3 -3 -3 -2 -2 -2 -2 -1 -1 -2 -2 -2 -2 -1 -1 -1 -1 -1 -2 -2 -2 -2 -2 -2 -2 -2 -2 -3 -3 -3 -3 -3 -3 -3 -2 -2 -2 -1 -1 -2 -2 -2 -3 -3 -3 -3 -3 -3 -3 -2 -2 -1 -1 -1 -1 -1 -1 -1 -1 -2 -2 -2 -2 -2 -2 -1
-3 -3 -3 -3 -3 -3 -3 -3 -3 -3 -3 -2 -2 -2 -2 -2 -2 -2 -3 -3 -3 -3 -3 -3 -3 -3 -3 -3 -3 -3 -3 -3 -3 -3 -2 -2 -2 -2 -2 -2 -2 -2 -2 -2 -1 -1 -2 -2 -2 -2 -1 -1 -1 -1 -1 -1 -1 -1 -1 -2 -2 -2 -2 -2 -2 -3 -3 -3 -3 -3 -3 -3 -3 -3 -2 -2 -2 -2 -2 -2 -3 -3 -3 -3 -3 -3 -3 -2 -2 -1 -1 -1 -1 -1 -1 -1 -1 -1 -2 -2 -2 -2 -2
-2 -2 -3 -3 -3 -3 -3 -3 -3 -3 -3 -2 -2 -2 -2 -2 -2 -3 -3 -3 -3 -3 -3 -3 -3 -3 -3 -3 -3 -3 -2 -2 -2 -2 -2 -2 -2 -1 -2 -1 -1 -1 -1 -1 -1 -1 -2 -2 -2 -2 -2 -1 -1 -1 -1 -1 -0 -0 -0 -1 -1 -1 -1 -1 -2 -2 -3 -3 -3 -3 -3 -4 -4 -4 -4 -3 -3 -3 -2 -2 -3 -3 -3 -3 -3 -3 -3 -2 -2 -2 -1 -1 -1 -1 -1 -1 -1 -1 -1 -1 -2 -2 -2
-2 -2 -2 -2 -2 -2 -2 -2 -2 -2 -2 -2 -2 -2 -2 -2 -2 -2 -2 -2 -2 -2 -2 -2 -2 -2 -2 -2 -2 -2 -2 -2 -2 -2 -2 -2 -2 -1 -1 -1 -2 -2 -2 -1 -1 -1 -1 -1 -1 -1 -1 -2 -2 -1 -1 -1 -0 -0 0 0 -0 -0 -0 -1 -1 -1 -2 -2 -2 -2 -3 -3 -4 -4 -4 -4 -4 -3 -3 -3 -3 -2 -2 -2 -2 -3 -3 -3 -3 -2 -2 -2 -1 -1 -1 -1 -1 -1 -1 -1 -1 -2 -2
-2 -2 -2 -2 -2 -2 -2 -2 -2 -2 -2 -2 -2 -2 -2 -2 -2 -2 -2 -2 -2 -2 -2 -2 -2 -2 -2 -2 -2 -2 -2 -2 -2 -2 -2 -2 -2 -2 -2 -2 -2 -2 -2 -2 -1 -1 -1 -1 -1 -1 -1 -1 -1 -2 -2 -1 -1 -0 0 1 1 1 0 -0 -0 -1 -1 -1 -1 -1 -2 -2 -3 -3 -3 -3 -3 -3 -3 -3 -3 -3 -3 -2 -2 -3 -3 -3 -3 -3 -3 -2 -2 -2 -1 -1 -1 -1 -1 -1 -1 -2 -2
-3 -3 -3 -2 -2 -2 -2 -3 -3 -3 -3 -3 -3 -3 -3 -3 -2 -2 -2 -2 -2 -2 -2 -2 -2 -2 -2 -2 -2 -2 -2 -2 -2 -2 -2 -2 -2 -2 -2 -2 -2 -2 -1 -1 -1 -1 -1 -1 -1 -1 -1 -1 -1 -1 -1 -1 -1 -1 -0 0 1 1 1 1 0 -0 -0 -0 -0 -0 -0 -0 -1 -1 -2 -2 -2 -2 -3 -3 -3 -3 -3 -3 -3 -3 -3 -3 -3 -3 -3 -2 -2 -2 -2 -2 -2 -1 -1 -1 -1 -1 -2
-3 -3 -3 -3 -3 -2 -2 -3 -3 -3 -3 -3 -3 -3 -3 -3 -3 -3 -3 -3 -3 -2 -2 -2 -2 -2 -2 -2 -2 -2 -2 -2 -2 -2 -2 -2 -2 -2 -2 -2 -2 -1 -1 -1 -1 -1 -1 -1 -1 -1 -1 -0 -0 -0 -1 -1 -1 -1 -1 -0 0 1 2 2 1 0 -0 -0 0 1 1 1 1 0 -0 -1 -1 -1 -2 -2 -2 -3 -3 -3 -3 -3 -3 -3 -3 -3 -3 -3 -3 -2 -2 -2 -2 -2 -1 -1 -1 -1 -1
-2 -2 -2 -2 -2 -2 -2 -2 -2 -2 -2 -2 -2 -2 -2 -2 -2 -2 -2 -2 -2 -2 -2 -2 -2 -2 -2 -2 -2 -2 -2 -2 -2 -2 -2 -2 -2 -2 -2 -2 -2 -1 -1 -1 -1 -1 -1 -1 -1 -1 -1 -1 -1 -1 -1 -1 -1 -1 -1 -1 -0 0 1 2 2 1 0 -0 -0 -0 1 1 1 1 1 1 0 -0 -0 -1 -1 -2 -2 -3 -3 -3 -3 -3 -3 -3 -3 -3 -3 -3 -2 -2 -2 -2 -1 -1 -1 -1 -1
-1 -1 -1 -1 -1 -1 -1 -1 -1 -1 -1 -1 -1 -0 -1 -0 -1 -1 -1 -1 -1 -1 -1 -1 -1 -1 -1 -1 -1 -1 -1 -2 -2 -2 -2 -2 -2 -2 -2 -2 -1 -1 -1 -1 -1 -1 -1 -1 -1 -1 -1 -1 -1 -1 -1 -1 -1 -1 -1 -1 -1 -1 -1 0 1 1 1 -0 -1 -1 -0 0 0 1 1 1 1 1 1 1 0 -0 -1 -1 -2 -2 -3 -3 -3 -3 -3 -3 -3 -3 -3 -3 -2 -2 -2 -1 -1 -1 -1
-0 -1 -1 -1 -1 -1 -1 -1 -0 -0 -0 -0 -0 -0 -0 -0 -0 -0 -0 -1 -1 -0 -0 -0 -1 -1 -1 -1 -1 -1 -1 -1 -1 -1 -1 -1 -1 -1 -1 -1 -1 -1 -1 -1 -0 -0 -0 -0 -0 -1 -1 -1 -1 -1 -1 -1 -1 -1 -1 -1 -1 -1 -2 -1 -0 1 1 0 -0 -1 -1 -1 -0 -0 0 0 0 1 1 1 1 1 1 0 -0 -1 -2 -2 -2 -3 -3 -3 -3 -3 -3 -3 -3 -3 -3 -2 -2 -1 -1
-1 -1 -2 -1 -1 -1 -1 -1 -1 -1 -1 -1 -0 -0 -0 -1 -1 -2 -2 -1 -1 -1 -1 -1 -1 -1 -1 -1 -1 -1 -1 -1 -1 -1 -1 -1 -1 -1 -1 -1 -1 -1 -0 -0 -0 -0 -0 -0 0 0 -0 -0 -0 -0 -0 -1 -1 -1 -1 -1 -0 -0 -1 -1 -0 -0 0 0 -0 -1 -1 -1 -1 -1 -1 -1 -0 -0 0 0 1 1 1 1 1 0 -0 -1 -1 -2 -2 -2 -2 -3 -3 -3 -3 -3 -3 -3 -3 -2 -2
-2 -1 -1 -1 -1 -1 -1 -1 -1 -1 -1 -1 -1 -1 -1 -1 -1 -2 -2 -2 -1 -1 -1 -1 -1 -1 -1 -1 -1 -1 -1 -0 -0 -1 -1 -1 -1 -1 -1 -1 -1 -1 -1 -0 -0 -0 -0 -0 0 0 0 0 0 0 0 0 -0 -0 -1 -1 -0 0 0 0 -0 -0 0 0 0 -0 -1 -1 -1 -1 -1 -1 -1 -1 -1 -0 -0 0 1 1 1 1 0 0 -0 -0 -1 -1 -1 -1 -2 -2 -2 -3 -3 -3 -3 -3 -3
-1 -0 -0 -0 0 1 1 1 1 1 -0 -1 -1 -1 -1 -0 -0 -1 -1 -1 -1 -1 -1 -1 -1 -0 -0 -0 -0 -0 0 0 -0 -0 -0 -1 -1 -1 -1 -1 -1 -1 -1 -0 -0 -0 -0 -0 -0 -0 0 0 0 0 1 1 0 0 -0 -0 -0 -0 0 1 1 1 0 0 0 -0 -0 -1 -1 -1 -1 -1 -1 -0 -0 -0 -0 -0 0 1 1 1 1 0 0 0 0 -0 -0 -0 -0 -1 -1 -1 -2 -2 -2 -3 -3
0 1 1 1 1 1 2 2 2 2 1 1 0 0 0 0 1 1 1 0 -0 -0 -0 -0 -0 -0 0 0 0 0 0 0 0 -0 -0 -0 -1 -1 -1 -1 -1 -1 -1 -0 -0 -0 -0 -0 -0 -0 -1 -0 -0 0 0 0 0 0 0 0 -0 -0 0 1 1 1 1 1 1 1 -0 -0 -1 -1 -1 -1 -1 -0 -0 -0 -0 -0 -0 0 1 1 1 1 0 0 0 0 0 0 0 0 0 -0 -1 -1 -1 -1 -1
1 1 1 1 1 1 2 1 1 1 1 1 1 1 1 1 1 1 2 2 1 1 1 1 1 1 1 0 0 0 0 0 0 -0 -1 -1 -1 -1 -1 -1 -1 -1 -1 -0 -0 -0 -0 -1 -1 -1 -1 -1 -1 0 1 0 0 0 0 0 0 0 -0 0 1 1 2 2 2 1 1 -0 -1 -1 -1 -1 -1 -1 -1 -0 -0 -0 -0 0 0 1 1 1 0 0 0 0 0 1 1 1 1 0 0 -0 -0 -0 -0
1 1 1 1 1 1 1 1 1 1 1 1 1 1 1 1 1 1 2 2 2 2 2 1 1 1 1 1 1 1 1 1 0 0 -0 -0 -1 -1 -1 -1 -1 -1 -1 -0 -0 -0 -0 -0 -1 -1 -1 -1 -1 -0 1 1 1 1 0 0 0 0 -0 -0 0 0 1 1 2 2 2 1 0 -1 -1 -1 -1 -1 -1 -1 -1 -0 -0 -0 -0 0 0 1 1 1 0 0 0 1 1 1 1 1 1 1 0 0 0
0 0 1 0 0 0 1 1 1 1 1 1 1 1 0 1 1 1 1 1 1 1 2 2 2 2 1 1 1 1 1 1 1 1 1 0 0 -0 -0 -1 -1 -0 -1 -0 -0 -0 -0 -0 -0 -0 -1 -1 -1 -0 1 1 1 1 0 0 0 0 -0 -0 -0 -0 0 1 1 1 2 2 2 1 -0 -0 -1 -1 -1 -2 -2 -1 -1 -1 -1 -0 -0 0 0 1 1 1 1 1 1 1 1 1 1 1 1 1 1
-0 -0 -0 -0 -0 0 1 1 1 1 1 1 1 1 0 0 0 0 1 1 1 1 2 2 2 2 2 2 1 1 1 1 1 2 1 1 1 1 0 -0 -0 -0 -1 -0 -0 -0 -0 -0 -0 -0 -0 -1 -1 -0 1 1 1 1 0 0 0 -0 -0 -0 -0 -0 -1 -0 -0 -0 -0 1 2 2 1 1 0 -0 -1 -2 -2 -2 -2 -2 -1 -1 -1 -1 -0 -0 0 1 1 1 1 1 1 1 1 1 1 1 1
-1 -1 -1 -0 -0 0 -0 0 1 1 1 0 0 1 0 0 0 -0 0 0 1 1 1 1 2 2 2 2 2 1 1 1 1 2 1 1 1 1 1 0 -0 -0 -0 -0 -0 -0 -0 -0 -0 -0 -0 -1 -1 -0 0 1 1 1 1 0 0 -0 -0 -0 -1 -1 -1 -1 -1 -1 -1 -0 1 2 2 2 2 1 -0 -1 -2 -2 -2 -2 -2 -2 -2 -1 -1 -1 -0 -0 0 1 1 1 1 1 1 1 1 1 1
-0 -1 -2 -1 -0 -0 -0 -0 0 0 1 0 0 0 0 0 -0 -0 -0 0 0 0 1 1 1 1 1 2 2 1 1 1 1 1 1 1 1 1 1 0 -0 -0 -0 -0 -0 -0 -0 -0 0 0 -0 -1 -1 -0 0 1 1 1 1 0 0 -0 -0 -0 -1 -1 -1 -1 -1 -1 -1 -1 -1 -0 1 2 3 3 2 0 -1 -1 -2 -2 -2 -2 -2 -2 -2 -1 -1 -1 -0 0 1 1 1 1 1 1 1 1 1
-0 -0 -1 -1 -0 0 -0 -0 -0 0 1 1 0 0 0 -0 -0 -0 0 0 0 0 0 0 0 1 1 1 1 1 1 1 1 0 0 1 1 1 1 0 -0 -0 -0 -0 -0 0 0 0 0 0 0 -0 -1 -0 0 0 0 1 1 0 0 0 -0 -0 -0 -1 -1 -1 -1 -1 -2 -2 -2 -1 -1 -0 1 3 3 2 1 0 -1 -1 -1 -1 -1 -2 -2 -2 -2 -1 -1 -1 -0 -0 0 0 1 1 1 1 1
-0 -0 -1 -1 -0 0 -0 -0 -0 0 1 1 1 0 0 -0 0 0 0 0 -0 -0 -0 -0 0 0 0 0 0 0 0 1 0 0 -0 0 1 1 1 1 0 -0 -0 -0 -0 0 0 0 1 1 0 -0 -0 -0 -0 0 0 0 1 0 0 0 -0 -0 -0 -0 -1 -1 -1 -1 -1 -2 -2 -1 -1 -2 -1 0 2 2 2 2 1 -0 -1 -1 -1 -1 -1 -1 -1 -1 -2 -2 -1 -1 -0 -0 0 0 0 0 1
0 -0 -1 -0 -0 -0 -0 -1 -0 0 0 0 0 0 0 0 0 0 0 0 -0 -0 -0 -0 0 0 0 0 0 0 0 0 1 0 0 0 0 1 1 0 0 -0 -0 -0 -0 -0 0 0 0 0 -0 -0 -0 -1 -0 1 1 0 0 0 0 0 -0 -0 -0 -0 -0 -0 -0 -0 -1 -1 -1 -1 -1 -2 -2 -2 -1 1 1 2 2 1 0 -0 -1 -1 -1 -1 -1 -1 -1 -2 -2 -2 -1 -1 -0 -0 0 0 0
0 -0 -0 -0 -0 -0 -1 -1 -0 -0 0 0 0 0 0 0 -0 -0 0 0 0 0 0 -0 0 0 0 0 0 0 -0 0 0 0 0 0 0 0 1 0 0 0 -0 -0 -0 -0 -0 0 0 -0 -0 -1 -1 -1 -1 0 1 1 0 0 0 0 -0 -0 -0 -0 -0 -1 -1 -1 -1 -1 -1 -1 -1 -1 -1 -2 -2 -1 -0 1 1 2 2 1 0 -0 -1 -1 -1 -1 -1 -1 -2 -2 -2 -2 -1 -1 -0 -0 -0
-0 -0 -0 -0 -0 -1 -1 -1 -0 -0 -0 0 0 -0 -0 0 -0 -0 0 0 0 0 0 0 0 0 0 0 -0 -0 -0 -0 -0 -0 0 0 0 0 0 0 0 0 0 -0 -0 -0 -0 -0 0 0 -0 -1 -1 -1 -2 -0 1 1 -0 0 0 0 -0 -0 -1 -1 -1 -1 -1 -1 -1 -1 -1 -1 -1 -1 -1 -1 -1 -1 -1 -0 0 1 2 3 2 2 1 1 0 0 -0 -0 -1 -2 -2 -2 -2 -2 -1 -1 -0
-0 -0 0 -0 -1 -1 -1 -1 -0 -0 -0 0 0 0 -0 -0 -0 -0 0 -0 -0 -0 -0 -0 -0 -0 -0 -0 -0 -1 -0 -0 -0 -1 -1 -0 -0 -0 0 -0 -0 -0 0 0 0 0 -0 -0 0 0 0 -0 -1 -2 -2 -2 -0 1 0 -0 -0 -0 -0 -0 -1 -1 -1 -1 -1 -1 -1 -1 -1 -1 -1 -1 -1 -1 -1 -1 -1 -1 -1 0 2 3 4 3 3 3 2 2 1 1 0 -1 -1 -2 -2 -2 -2 -1 -1
-0 -0 0 -0 -1 -1 -1 -0 -0 -0 -0 0 0 0 0 0 -0 -0 -0 -0 -0 -0 -0 -0 -0 -0 -1 -1 -1 -1 -1 -0 -0 -0 -1 -1 -0 -0 -0 -0 -0 -0 -0 0 0 0 0 0 0 0 0 0 -0 -1 -2 -2 -2 -0 1 -0 -0 -0 -1 -1 -1 -1 -1 -1 -1 -1 -1 -1 -1 -1 -1 -1 -1 -1 -1 -1 -2 -2 -3 -2 -1 1 2 2 2 3 3 3 3 2 2 1 -0 -1 -2 -2 -2 -2 -2
-0 -0 0 -0 -0 -1 -1 -0 -0 -0 -0 0 0 0 -0 0 -0 -0 -1 -0 -0 -0 -0 -0 -0 -0 -0 -0 -1 -1 -0 -0 -0 -0 -1 -1 -1 -1 -0 -0 -0 -0 -0 0 0 0 0 1 1 0 0 0 -0 -0 -1 -2 -2 -2 -0 0 -0 -1 -1 -1 -1 -1 -1 -1 -1 -1 -1 -1 -1 -1 -1 -1 -1 -1 -1 -1 -1 -2 -3 -3 -3 -2 -1 -1 -0 0 1 2 2 3 2 2 1 1 -0 -2 -2 -2 -2
-0 0 0 -0 -0 -1 -1 -1 -1 -1 -0 0 -0 -0 -0 -0 -0 -0 -1 -1 -1 -1 -0 -0 -0 -0 -0 -0 -0 -0 -0 -0 -0 -0 -1 -1 -1 -1 -1 -0 0 -0 -0 0 -0 -0 -0 1 1 1 0 0 -0 -0 -1 -1 -2 -2 -2 0 -0 -1 -1 -1 -1 -1 -1 -1 -1 -1 -1 -1 -1 -1 -1 -0 -1 -1 -1 -1 -1 -1 -2 -3 -3 -3 -3 -2 -2 -1 -1 -0 0 1 2 2 2 2 1 0 -1 -2 -2
0 -0 -0 -0 -1 -1 -1 -1 -1 -1 -0 -0 -0 -0 -1 -1 -1 -1 -1 -1 -1 -1 -0 -0 -0 -0 0 0 -0 -0 -0 -0 0 -0 -0 -1 -1 -1 -1 -0 -0 0 0 0 -0 -0 -0 0 0 0 0 0 0 -0 -1 -1 -1 -2 -2 -1 -0 -1 -1 -1 -1 -1 -1 -1 -1 -1 -1 -1 -1 -1 -1 -0 -1 -1 -1 -1 -1 -1 -1 -2 -3 -3 -3 -3 -3 -2 -2 -1 -1 -1 0 1 1 2 2 2 2 1 -1
0 -0 -1 -1 -1 -1 -1 -1 -1 -0 -0 -0 -0 -0 -1 -1 -1 -1 -1 -1 -1 -1 -0 -0 -0 -0 -0 0 0 -0 -0 -0 0 0 0 -1 -1 -1 -1 -1 -0 0 1 0 0 -0 -0 0 0 0 0 0 -0 -0 -1 -1 -1 -1 -2 -1 -1 -0 -1 -1 -1 -1 -1 -1 -1 -1 -1 -1 -1 -1 -1 -1 -1 -1 -1 -1 -1 -1 -1 -1 -2 -2 -3 -3 -3 -3 -3 -2 -2 -2 -1 -1 -0 1 2 3 3 3 2
0 -0 -1 -1 -1 -1 -1 -1 -1 -0 -0 -0 -0 -0 -1 -1 -1 -1 -1 -1 -1 -1 -0 0 0 0 0 0 0 0 -0 -0 0 0 0 -0 -1 -1 -1 -1 -1 -0 1 0 0 0 0 -0 -0 -0 0 -0 -0 -0 -1 -1 -0 -0 -1 -1 -1 -1 -1 -1 -1 -1 -1 -1 -1 -1 -1 -1 -1 -1 -1 -1 -1 -1 -1 -1 -0 -0 -0 -1 -1 -1 -2 -3 -3 -3 -3 -3 -3 -2 -3 -3 -2 -1 -0 2 3 3 3
0 -0 -1 -1 -1 -1 -1 -1 -0 -0 -0 -0 -0 -1 -1 -2 -2 -1 -1 -1 -1 -1 -0 0 1 1 1 1 0 -0 -0 -0 -0 -0 -0 -0 -0 -1 -0 -1 -1 -1 -0 -0 0 0 0 -0 -0 -0 -0 -0 -0 -0 -1 -0 -0 -0 -1 -1 -2 -1 -1 -1 -1 -1 -1 -1 -1 -1 -0 -0 -1 -1 -1 -1 -1 -1 -1 -1 -1 -0 -0 -0 -0 -0 -1 -1 -2 -3 -3 -3 -3 -3 -2 -3 -4 -4 -3 -1 1 2 3
0 -0 -1 -1 -1 -1 -1 -1 -0 -0 -1 -1 -1 -1 -1 -2 -2 -1 -1 -1 -1 -1 -0 0 1 1 1 1 0 -0 -0 -0 -1 -1 -1 -1 -1 -1 -1 -1 -1 -1 -1 -1 -1 -0 0 -0 -0 -0 -0 -0 -0 -0 -1 -0 -0 -1 -1 -1 -2 -2 -2 -1 -1 -1 -1 -1 -1 -1 -1 -0 -0 -0 -1 -1 -1 -1 -1 -1 -1 -1 -0 -0 -0 0 0 -0 -1 -2 -2 -3 -3 -3 -2 -2 -3 -4 -5 -4 -2 0 2
0 -0 -1 -1 -1 -1 -1 -1 -0 -0 -1 -1 -1 -1 -1 -1 -1 -1 -0 -0 -0 -0 0 -0 -0 0 1 1 0 -0 -0 -0 -1 -1 -2 -2 -2 -2 -2 -2 -2 -1 -1 -1 -1 -1 -0 -0 -0 -0 -1 -1 -1 -0 -0 -0 -0 -1 -1 -1 -2 -2 -2 -2 -2 -2 -1 -1 -1 -1 -1 -0 -0 -0 -0 -0 -0 -1 -1 -1 -1 -1 -1 -0 -0 0 0 0 0 -0 -1 -2 -2 -2 -2 -2 -3 -3 -5 -5 -4 -2 0
-0 -0 -1 -1 -1 -1 -1 -1 -1 -1 -1 -1 -1 -1 -1 -1 -1 -1 -0 -0 0 0 1 0 -0 -1 -1 -0 -1 -1 -1 -1 -1 -1 -2 -2 -2 -2 -3 -3 -3 -2 -1 -1 -1 -1 -0 -0 -0 -1 -1 -1 -1 -0 -0 -0 -1 -1 -1 -1 -2 -2 -2 -2 -2 -2 -2 -2 -1 -0 -0 -0 -1 -0 -0 -0 -0 -0 -0 -0 -0 -0 -0 -0 -0 0 0 0 0 0 -0 -1 -1 -2 -2 -2 -2 -2 -3 -5 -5 -4 -0
-0 -0 -1 -1 -1 -1 -1 -1 -1 -1 -1 -1 -1 -1 -1 -1 -1 -1 -1 -0 -0 0 1 1 0 -1 -2 -2 -2 -2 -2 -2 -2 -2 -1 -1 -1 -2 -3 -3 -3 -2 -2 -1 -1 -1 -1 -0 -0 -0 -1 -1 -1 -0 -0 -0 -1 -1 -1 -1 -2 -2 -2 -2 -2 -2 -2 -2 -2 -1 -0 0 -0 -1 -1 -0 -0 0 0 0 0 -0 -0 -0 -0 -0 0 0 0 0 0 -0 -0 -1 -1 -1 -1 -1 -2 -3 -4 -4 -1
-0 -0 -1 -1 -1 -1 -1 -1 -1 -1 -1 -1 -1 -1 -2 -1 -1 -1 -1 -1 -1 -0 0 1 1 -0 -1 -2 -2 -2 -2 -3 -3 -3 -2 -1 -0 -0 -1 -2 -2 -2 -2 -2 -1 -1 -1 -0 -0 -0 -1 -1 -1 -1 -1 -1 -1 -1 -1 -1 -1 -2 -2 -1 -1 -2 -2 -2 -3 -2 -1 1 0 -1 -2 -1 -0 0 0 0 0 0 -0 -0 -0 -0 0 0 -0 -0 -0 -0 -0 -0 -0 -0 -1 -1 -1 -2 -4 -4 -3
-0 -0 -1 -1 -1 -1 -1 -1 -1 -1 -1 -1 -2 -2 -2 -2 -2 -1 -1 -1 -2 -2 -1 0 1 0 -1 -1 -1 -1 -1 -2 -3 -4 -4 -2 -1 -0 -0 -1 -1 -2 -2 -2 -1 -1 -1 -0 -0 -0 -0 -1 -1 -1 -1 -1 -1 -1 -1 -1 -1 -1 -1 -1 -1 -1 -2 -2 -2 -3 -2 -0 0 0 -1 -1 -1 -0 0 0 0 0 -0 -0 -0 -0 -0 -0 -0 -0 -0 -0 -0 -0 -0 -0 -1 -1 -1 -2 -3 -4 -4
-0 -0 -1 -1 -1 -1 -1 -1 -1 -1 -1 -2 -2 -2 -2 -2 -2 -1 -1 -1 -2 -2 -3 -1 0 1 -0 -0 -1 -1 -0 -1 -2 -3 -4 -4 -3 -2 -2 -1 -1 -1 -1 -1 -1 -1 -1 -1 -0 -0 0 -0 -0 -1 -1 -1 -1 -1 -1 -1 -1 -1 -1 -1 -1 -1 -1 -1 -1 -2 -2 -1 -0 0 0 -1 -1 -1 -0 0 0 -0 -0 -0 -0 -0 -0 -0 -0 -0 -0 -0 -0 -0 -0 -0 -0 -0 -1 -1 -2 -4 -5
-0 -0 -1 -1 -1 -1 -1 -1 -1 -1 -1 -2 -2 -2 -2 -2 -2 -2 -2 -2 -1 -2 -3 -2 -1 1 1 1 0 -0 0 -0 -0 -1 -2 -3 -3 -3 -3 -3 -2 -2 -1 -1 -1 -1 -1 -1 -1 -0 -0 -0 -0 -0 -1 -1 -1 -2 -2 -2 -2 -1 -1 -1 -1 -1 -0 -0 -1 -1 -1 -1 -1 -0 0 0 -0 -0 -0 -0 -0 -1 -1 -1 -1 -0 -0 -0 -1 -1 -1 -0 -0 -0 0 0 -0 -0 -0 -1 -1 -2 -4
-0 -0 -1 -1 -1 -1 -1 -1 -1 -1 -1 -1 -2 -2 -2 -2 -2 -3 -3 -3 -2 -1 -1 -2 -2 0 2 2 2 1 1 1 0 -0 -0 -1 -1 -1 -1 -2 -2 -2 -2 -2 -1 -1 -1 -1 -1 -1 -1 -0 -0 -0 -1 -1 -1 -1 0 -0 -0 -0 -1 -1 -1 -0 -0 -0 0 0 0 -0 -1 -1 -0 -0 -0 -0 0 1 -0 -1 -2 -1 -1 -1 -0 -0 -0 -1 -1 -1 -0 -0 0 0 0 -0 -0 -0 -1 -1 -2
0 -0 -0 -1 -1 -1 -2 -2 -2 -1 -1 -1 -2 -2 -2 -3 -3 -3 -3 -3 -2 -2 -1 -2 -2 -2 0 2 3 3 2 2 1 0 -1 -1 -0 0 0 -1 -1 -2 -1 -1 -1 -2 -2 -2 -2 -2 -1 -1 -1 -1 -1 -1 -1 -0 0 0 -0 -0 -0 -1 -1 -0 0 0 1 1 1 0 -0 -0 -0 -0 -1 -1 -1 1 1 -0 -2 -2 -2 -1 -0 -0 -0 -1 -1 -1 -0 -0 0 0 0 0 0 0 -0 -0 -0
0 -0 -0 -1 -1 -2 -2 -2 -2 -2 -1 -1 -2 -2 -2 -3 -3 -2 -2 -2 -2 -2 -1 -1 -2 -2 -3 -1 1 3 3 3 3 2 -0 -2 -2 -1 0 -1 -1 -1 1 2 1 -0 -1 -2 -2 -2 -2 -2 -1 -1 -1 -1 -0 -0 -1 -1 -1 -1 -1 -0 -0 -0 0 1 1 1 1 1 0 0 0 -0 -1 -1 -2 -1 0 0 -1 -2 -2 -1 -0 -0 -1 -1 -1 -0 -0 -0 0 0 1 1 1 1 0 0 -0
0 0 -0 -0 -1 -2 -2 -2 -2 -2 -1 -1 -2 -2 -2 -2 -2 -2 -2 -2 -2 -2 -2 -1 -0 -1 -3 -4 -3 -2 -1 1 2 3 2 -0 -2 -3 -2 -3 -4 -5 -4 -0 2 3 1 -0 -2 -2 -3 -2 -1 -1 -1 -1 -1 -1 -1 -1 -1 -2 -2 -1 -0 -0 0 0 0 1 1 1 1 1 0 0 -0 -1 -2 -2 -1 -1 -0 -1 -1 -1 -1 -1 -1 -1 -0 0 0 0 1 1 1 1 1 1 1 1 0
0 0 -0 -0 -1 -2 -2 -3 -3 -2 -2 -1 -2 -2 -2 -2 -2 -2 -2 -3 -3 -3 -3 -2 -0 1 -1 -3 -4 -5 -6 -6 -2 2 2 1 -1 -2 -4 -3 -3 -4 -7 -8 -5 0 3 2 0 -2 -2 -2 -2 -1 -1 -1 -1 -1 -1 -0 -1 -2 -2 -1 -0 -0 0 -0 0 0 1 0 0 0 0 -0 -0 -1 -2 -2 -2 -2 -2 -2 -1 0 1 0 -1 -2 -1 -0 0 1 1 1 1 1 1 1 1 1 1
0 0 -0 -1 -1 -2 -2 -3 -3 -2 -2 -2 -2 -2 -2 -2 -2 -2 -2 -2 -3 -4 -3 -4 -2 0 3 1 -1 -2 -3 -7 -5 -1 1 -1 -1 -2 -4 -3 -1 1 3 -3 -6 -5 2 2 0 -2 -2 -2 -2 -2 -1 -1 -1 -1 -1 -1 -1 -2 -2 -1 -0 -0 -0 -0 -0 0 1 0 -0 -0 -0 -1 -1 -1 -2 -2 -3 -3 -3 -3 -2 -0 2 2 1 -1 -0 0 1 1 1 1 1 1 1 1 1 1 1
0 0 -0 -1 -1 -2 -2 -2 -2 -2 -2 -2 -2 -2 -2 -2 -2 -2 -1 -1 -2 -3 -3 -3 -4 -3 0 3 3 2 2 -2 -3 -2 2 0 -1 -2 -3 -2 -3 -2 0 1 -4 -7 -1 0 -0 -2 -2 -2 -2 -2 -2 -2 -2 -2 -1 -1 -1 -2 -1 -0 -0 -0 -0 -1 -0 0 1 0 -0 -0 -1 -1 -1 -2 -2 -2 -2 -3 -3 -3 -3 -2 0 1 1 0 1 1 1 1 1 1 1 1 1 1 1 1 1
0 -0 -0 -0 -1 -1 -1 -1 -2 -2 -2 -1 -1 -2 -2 -1 -1 -1 -1 1 0 -1 -2 -2 -3 -4 -6 -3 1 3 2 2 1 0 2 2 -0 -2 -3 -1 -3 -4 -2 1 -2 -5 -1 -4 -6 -5 -2 -1 -1 -2 -2 -2 -2 -2 -1 -1 -1 -2 -1 -0 -0 -0 -1 -1 -1 -0 0 0 -0 -1 -1 -1 -1 -1 -1 -2 -2 -2 -2 -3 -3 -3 -1 0 0 0 1 1 1 1 1 2 1 1 1 1 1 1 1
0 0 0 -0 -0 -1 -0 -0 -1 -2 -2 -2 -1 -1 -1 -0 -0 -1 -1 0 1 1 0 -1 -1 -1 -3 -6 -4 -2 -3 -2 0 3 3 3 2 -0 -3 -3 -2 -2 0 -0 -2 -2 2 -0 -7 -11 -7 -1 0 -1 -2 -1 -2 -2 -2 -2 -1 -1 -1 -1 -0 -0 -1 -1 -1 -1 -1 -0 -0 -1 -1 -1 -1 -1 -1 -1 -2 -2 -2 -2 -3 -3 -2 -1 -1 -1 0 1 1 -0 0 1 1 1 1 1 1 1 1
0 0 0 0 0 0 0 0 -0 -1 -2 -2 -1 -0 0 1 0 -0 -1 -2 -1 0 2 0 0 1 1 -1 -2 -2 -3 -9 -6 0 3 2 2 2 -0 -2 -2 -1 -1 -1 -1 -1 0 1 -2 -7 -13 -5 -0 1 -1 1 1 -0 -1 -2 -2 -1 -1 -1 -1 -1 -1 -1 -1 -1 -1 -1 -1 -1 -1 -1 -1 -1 -1 -1 -1 -1 -1 -2 -3 -3 -2 -1 -1 -1 0 1 1 0 -0 0 1 1 1 1 1 1 1
0 0 0 1 1 0 -0 -0 -0 -1 -2 -2 -2 -0 1 2 1 1 0 -1 -3 -3 -1 -0 -0 -0 1 1 1 2 3 -7 -8 -4 2 0 1 2 3 1 -0 -1 -0 -1 -0 0 -1 -2 1 0 -11 -8 -3 -0 -4 1 2 2 1 0 -0 -1 -1 -0 -1 -1 -2 -2 -1 -1 0 -0 -1 -2 -2 -1 -1 -1 -0 -0 -1 -1 -1 -2 -3 -3 -2 -1 -1 -1 -0 1 1 1 -0 0 1 1 1 1 1 1 1
0 0 0 1 1 0 -0 -1 -0 -1 -2 -3 -3 -1 1 2 2 1 1 0 -1 -3 -3 -2 -2 -2 -1 0 1 1 4 1 -5 -7 -0 1 1 0 2 2 2 1 1 -2 -1 1 -1 1 4 4 -3 -5 -2 1 -3 -3 -1 1 3 3 2 1 -0 -0 -1 -1 -1 -2 -1 -0 1 2 1 -1 -2 -1 -1 -1 -0 0 0 -0 -0 -2 -2 -3 -2 -1 -1 -1 -0 0 1 0 0 0 1 1 1 1 1 1 1
0 0 0 0 0 -0 -1 -1 -0 -0 -1 -3 -4 -4 -1 2 3 2 1 1 0 -1 -3 -3 -3 -3 -2 -1 0 1 2 4 1 -3 -6 -0 1 1 1 1 2 2 1 -1 -0 -0 -1 -0 3 5 5 -1 -2 1 2 -0 -1 1 3 3 3 3 2 0 -0 -1 -1 -1 -0 -0 0 2 2 1 -1 -1 -1 -1 -0 0 0 0 -0 -1 -2 -2 -2 -1 -1 -0 0 -0 -0 -1 -0 0 1 1 1 1 1 1 1
-0 0 0 -0 -0 -1 -1 -1 -1 -1 -1 -2 -4 -4 -3 0 2 3 2 2 1 -0 -1 -3 -4 -3 -3 -1 0 1 1 3 3 -0 -8 -4 -1 2 2 3 2 1 1 1 1 0 -1 -2 -0 3 5 -0 -2 -2 1 2 2 3 3 3 3 2 1 0 -0 -1 -1 -0 1 1 -0 1 2 2 0 -1 -1 -1 -1 -0 -0 -0 -0 -1 -2 -2 -2 -1 -0 1 1 -0 -1 -1 -0 0 1 1 1 1 1 1 0
-1 -0 -0 -0 -0 -1 -1 -1 -1 -2 -1 -1 -2 -4 -4 -2 1 2 3 2 2 2 1 -1 -3 -4 -3 -1 1 2 1 2 2 1 -2 -3 -3 -1 5 8 5 0 0 1 1 1 1 -1 -1 0 1 -1 -1 -1 -3 -1 1 3 3 4 4 4 1 0 -0 -0 -1 0 1 1 -0 -0 0 0 0 -1 -1 -1 -1 -1 -0 -1 -1 -1 -2 -2 -2 -2 -1 1 2 0 -1 -1 -1 -0 0 0 0 0 0 0 -0
-1 -1 -1 -1 -0 -0 0 -0 -1 -1 -2 -1 -2 -3 -3 -1 0 2 2 1 1 2 1 0 -1 -2 -2 -0 1 1 1 1 1 0 0 0 -2 -2 2 3 2 0 1 3 2 2 2 0 0 0 -0 -1 -1 -0 -0 -2 -1 -0 -0 1 4 6 4 1 1 1 1 1 1 1 -0 -1 -1 -1 -1 -1 -1 -1 -1 -1 -1 -1 -1 -1 -1 -1 -1 -1 -1 -0 1 0 -0 -1 -1 -0 -0 -0 -0 -0 -0 -0 -1
Height
3197 3197 3197 3197 3198 3198 3198 3199 3199 3199 3199 3200 3200 3200 3200 3201 3201 3201 3201 3201 3201 3201 3201 3201 3201 3201 3201 3201 3201 3201 3201 3201 3201 3201 3201 3201 3201 3201 3201 3201 3200 3200 3200 3200 3200 3199 3199 3198 3198 3198 3198 3198 3198 3197 3197 3197 3197 3196 3196 3195 3195 3195 3194 3194 3193 3193 3193 3192 3192 3191 3191 3190 3190 3189 3189 3189 3188 3188 3188 3187 3187 3187 3187 3186 3186 3185 3185 3184 3184 3184 3183 3183 3182 3182 3182 3182 3181 3181 3181 3180 3180 3180 3180
3198 3198 3198 3199 3199 3199 3199 3200 3200 3200 3200 3201 3201 3201 3201 3202 3202 3202 3202 3202 3202 3202 3202 3202 3202 3202 3202 3202 3202 3202 3202 3202 3202 3202 3202 3202 3201 3201 3201 3201 3201 3201 3201 3201 3201 3200 3200 3199 3199 3199 3199 3199 3198 3198 3198 3197 3197 3197 3196 3196 3196 3195 3195 3194 3194 3193 3193 3192 3192 3192 3191 3191 3190 3190 3189 3189 3189 3188 3188 3188 3187 3187 3187 3186 3186 3186 3185 3185 3184 3184 3183 3183 3183 3182 3182 3182 3182 3181 3181 3181 3180 3180 3180
3199 3199 3200 3200 3200 3200 3201 3201 3201 3201 3202 3202 3202 3202 3202 3202 3202 3202 3203 3203 3203 3203 3203 3203 3203 3202 3202 3202 3202 3202 3202 3202 3202 3202 3202 3202 3202 3202 3202 3202 3202 3202 3202 3201 3201 3201 3200 3200 3200 3200 3200 3199 3199 3199 3198 3198 3197 3197 3197 3197 3196 3196 3195 3195 3194 3194 3193 3193 3193 3192 3192 3191 3191 3191 3190 3190 3189 3189 3188 3188 3188 3187 3187 3187 3186 3186 3185 3185 3184 3184 3184 3183 3183 3182 3182 3182 3182 3181 3181 3181 3180 3180 3180
3200 3201 3201 3201 3201 3201 3202 3202 3202 3202 3202 3203 3203 3203 3203 3203 3203 3203 3203 3203 3203 3203 3203 3203 3203 3203 3203 3203 3203 3203 3203 3203 3203 3203 3203 3203 3203 3203 3202 3202 3202 3202 3202 3202 3202 3202 3201 3201 3201 3200 3200 3200 3200 3199 3199 3199 3198 3198 3197 3197 3197 3196 3196 3195 3195 3194 3194 3194 3193 3192 3192 3192 3192 3191 3191 3190 3190 3189 3189 3189 3188 3188 3187 3187 3187 3186 3186 3185 3185 3184 3184 3183 3183 3183 3182 3182 3182 3181 3181 3181 3180 3180 3180
3201 3202 3202 3202 3202 3202 3203 3203 3203 3203 3203 3204 3204 3204 3204 3204 3204 3204 3204 3204 3204 3204 3204 3204 3204 3204 3204 3204 3204 3204 3204 3204 3204 3204 3204 3203 3203 3203 3203 3203 3203 3203 3203 3202 3202 3202 3202 3202 3201 3201 3201 3201 3200 3200 3200 3199 3199 3198 3198 3197 3197 3197 3196 3196 3196 3195 3195 3194 3194 3193 3193 3193 3192 3192 3192 3191 3191 3190 3190 3189 3189 3188 3188 3187 3187 3187 3186 3186 3185 3185 3184 3184 3183 3183 3182 3182 3182 3182 3181 3181 3180 3180 3180
3202 3202 3203 3203 3203 3203 3204 3204 3204 3204 3204 3205 3205 3205 3205 3205 3205 3205 3205 3205 3205 3205 3205 3205 3205 3205 3205 3205 3205 3205 3205 3204 3204 3204 3204 3204 3204 3204 3204 3204 3204 3203 3203 3203 3203 3203 3202 3202 3202 3202 3201 3201 3201 3201 3200 3200 3199 3199 3198 3198 3198 3197 3197 3197 3196 3196 3195 3195 3194 3194 3194 3193 3193 3192 3192 3192 3191 3191 3190 3190 3189 3189 3188 3188 3187 3187 3187 3186 3186 3185 3185 3184 3184 3183 3183 3182 3182 3182 3181 3181 3180 3180 3180
3203 3203 3204 3204 3204 3204 3204 3205 3205 3205 3205 3205 3206 3206 3206 3206 3206 3206 3206 3206 3206 3206 3206 3206 3205 3205 3205 3205 3205 3205 3205 3205 3205 3205 3205 3205 3205 3205 3204 3204 3204 3204 3204 3203 3203 3203 3203 3202 3202 3202 3202 3202 3201 3201 3201 3200 3200 3199 3199 3199 3198 3198 3197 3197 3197 3196 3196 3195 3195 3194 3194 3193 3193 3193 3192 3192 3192 3191 3191 3190 3190 3189 3189 3188 3188 3187 3187 3187 3186 3186 3185 3185 3184 3184 3183 3183 3182 3182 3181 3181 3181 3180 3180
3204 3204 3204 3205 3205 3205 3205 3205 3206 3206 3206 3206 3206 3206 3206 3206 3206 3206 3206 3206 3206 3206 3206 3206 3206 3206 3206 3206 3206 3206 3206 3206 3206 3206 3205 3205 3205 3205 3205 3205 3204 3204 3204 3204 3204 3203 3203 3203 3202 3202 3202 3202 3202 3201 3201 3201 3200 3200 3200 3199 3199 3198 3198 3197 3197 3197 3196 3196 3195 3195 3194 3194 3193 3193 3192 3192 3192 3191 3191 3191 3190 3190 3189 3189 3188 3188 3187 3187 3187 3186 3186 3185 3185 3184 3183 3183 3182 3182 3182 3181 3181 3180 3180
3204 3205 3205 3205 3205 3206 3206 3206 3206 3206 3207 3207 3207 3207 3207 3207 3207 3207 3207 3207 3207 3207 3207 3207 3207 3206 3206 3206 3206 3206 3206 3206 3206 3206 3206 3206 3205 3205 3205 3205 3205 3204 3204 3204 3204 3203 3203 3203 3203 3202 3202 3202 3202 3202 3201 3201 3201 3200 3200 3200 3199 3199 3198 3198 3197 3197 3197 3196 3196 3195 3194 3194 3193 3193 3193 3192 3192 3192 3191 3191 3190 3190 3190 3189 3189 3188 3188 3187 3187 3186 3186 3185 3185 3184 3184 3183 3183 3182 3182 3181 3181 3180 3180
3205 3205 3205 3206 3206 3206 3206 3206 3206 3207 3207 3207 3207 3207 3207 3207 3207 3207 3207 3207 3207 3207 3207 3207 3207 3207 3207 3207 3207 3206 3206 3206 3206 3206 3206 3206 3206 3206 3205 3205 3205 3205 3204 3204 3204 3204 3203 3203 3203 3203 3202 3202 3202 3202 3202 3201 3201 3201 3200 3200 3200 3199 3199 3198 3197 3197 3197 3196 3196 3195 3195 3194 3194 3193 3193 3192 3192 3192 3191 3191 3190 3190 3190 3189 3189 3188 3188 3187 3187 3187 3186 3186 3185 3185 3184 3183 3183 3182 3182 3182 3181 3181 3180
3205 3206 3206 3206 3206 3206 3206 3207 3207 3207 3207 3207 3207 3207 3207 3207 3207 3207 3207 3207 3207 3207 3207 3207 3207 3207 3207 3207 3207 3207 3207 3206 3206 3206 3206 3206 3206 3206 3205 3205 3205 3205 3205 3204 3204 3204 3204 3203 3203 3203 3203 3202 3202 3202 3202 3201 3201 3201 3201 3200 3200 3199 3199 3198 3198 3197 3197 3197 3196 3196 3195 3195 3194 3194 3193 3193 3192 3192 3191 3191 3191 3190 3190 3189 3189 3188 3188 3187 3187 3187 3186 3186 3185 3185 3184 3184 3183 3183 3182 3182 3181 3181 3180
3206 3206 3206 3206 3207 3207 3207 3207 3207 3207 3207 3207 3207 3207 3207 3207 3207 3207 3207 3207 3207 3207 3207 3207 3207 3207 3207 3207 3207 3207 3207 3207 3206 3206 3206 3206 3206 3206 3206 3205 3205 3205 3205 3204 3204 3204 3204 3203 3203 3203 3203 3202 3202 3202 3202 3202 3201 3201 3201 3200 3200 3199 3199 3199 3198 3197 3197 3197 3196 3196 3195 3195 3194 3194 3193 3193 3192 3192 3192 3191 3191 3190 3190 3189 3189 3188 3188 3187 3187 3187 3186 3186 3185 3185 3184 3184 3183 3183 3182 3182 3181 3181 3180
3206 3207 3207 3207 3207 3207 3207 3207 3207 3207 3208 3208 3208 3208 3208 3208 3208 3208 3208 3208 3208 3208 3208 3207 3207 3207 3207 3207 3207 3207 3207 3207 3206 3206 3206 3206 3206 3206 3206 3205 3205 3205 3205 3205 3204 3204 3204 3204 3203 3203 3203 3202 3202 3202 3202 3202 3201 3201 3201 3200 3200 3200 3199 3199 3198 3198 3197 3196 3196 3196 3195 3195 3194 3194 3193 3193 3192 3192 3192 3191 3191 3190 3190 3189 3189 3188 3188 3187 3187 3187 3186 3186 3186 3185 3184 3184 3183 3183 3182 3182 3182 3181 3180
3207 3207 3207 3207 3207 3208 3208 3208 3208 3208 3208 3208 3208 3208 3208 3208 3208 3208 3208 3208 3208 3208 3208 3208 3208 3207 3207 3207 3207 3207 3207 3207 3206 3206 3206 3206 3206 3206 3205 3205 3205 3205 3205 3204 3204 3204 3204 3203 3203 3203 3203 3202 3202 3202 3202 3202 3201 3201 3201 3200 3200 3199 3199 3199 3198 3198 3197 3196 3196 3195 3195 3195 3194 3194 3193 3193 3192 3192 3192 3191 3191 3190 3190 3189 3189 3188 3188 3187 3187 3187 3186 3186 3185 3185 3184 3184 3183 3183 3182 3182 3182 3181 3180
3207 3207 3207 3207 3208 3208 3208 3208 3208 3208 3208 3209 3209 3209 3209 3209 3209 3208 3208 3208 3208 3208 3208 3208 3208 3207 3207 3207 3207 3207 3207 3207 3206 3206 3206 3206 3206 3205 3205 3205 3205 3205 3204 3204 3204 3204 3204 3203 3203 3203 3202 3202 3202 3202 3202 3201 3201 3201 3201 3200 3200 3199 3199 3198 3198 3197 3197 3196 3196 3195 3195 3194 3194 3193 3193 3192 3192 3192 3191 3191 3191 3190 3190 3189 3189 3188 3188 3187 3187 3187 3186 3186 3185 3185 3184 3184 3183 3183 3182 3182 3182 3181 3180
3207 3207 3207 3208 3208 3208 3208 3208 3208 3208 3209 3209 3209 3209 3209 3209 3209 3208 3208 3208 3208 3208 3208 3208 3208 3207 3207 3207 3207 3207 3207 3206 3206 3206 3206 3206 3205 3205 3205 3205 3205 3204 3204 3204 3204 3204 3203 3203 3203 3203 3202 3202 3202 3202 3201 3201 3201 3201 3200 3200 3200 3199 3199 3198 3198 3197 3197 3196 3196 3195 3194 3194 3193 3193 3193 3192 3192 3191 3191 3191 3190 3190 3189 3189 3188 3188 3187 3187 3187 3186 3186 3185 3185 3184 3184 3183 3183 3182 3182 3182 3181 3181 3180
3207 3207 3208 3208 3208 3208 3208 3208 3208 3208 3209 3209 3209 3209 3209 3209 3209 3208 3208 3208 3208 3208 3208 3208 3208 3207 3207 3207 3207 3207 3207 3206 3206 3206 3206 3205 3205 3205 3204 3204 3204 3204 3204 3204 3203 3203 3203 3203 3202 3202 3202 3202 3202 3202 3201 3201 3201 3200 3200 3200 3199 3199 3198 3198 3197 3197 3197 3196 3195 3195 3194 3194 3193 3193 3192 3192 3191 3191 3191 3190 3190 3189 3189 3188 3188 3188 3187 3187 3186 3186 3186 3185 3185 3184 3183 3183 3183 3182 3182 3181 3181 3181 3180
3207 3208 3208 3208 3208 3208 3208 3208 3209 3209 3209 3209 3209 3209 3209 3209 3209 3209 3208 3208 3208 3208 3208 3208 3207 3207 3207 3207 3207 3207 3206 3206 3206 3206 3205 3205 3205 3204 3204 3204 3203 3203 3203 3203 3203 3202 3202 3202 3202 3202 3202 3202 3201 3201 3201 3201 3200 3200 3199 3199 3199 3198 3198 3198 3197 3197 3196 3196 3195 3194 3194 3193 3193 3192 3192 3191 3191 3190 3190 3190 3189 3189 3188 3188 3187 3187 3187 3186 3186 3186 3185 3185 3184 3184 3183 3183 3182 3182 3181 3181 3181 3180 3180
3208 3208 3208 3208 3208 3208 3209 3209 3209 3209 3209 3209 3209 3209 3209 3209 3209 3209 3209 3208 3208 3208 3208 3208 3207 3207 3207 3207 3207 3207 3206 3206 3206 3205 3205 3205 3204 3204 3203 3203 3203 3203 3202 3202 3202 3202 3202 3202 3201 3201 3201 3201 3201 3201 3200 3200 3200 3199 3199 3198 3198 3198 3197 3197 3197 3196 3196 3195 3195 3194 3193 3193 3192 3192 3191 3191 3190 3190 3189 3189 3188 3188 3187 3187 3187 3187 3186 3186 3185 3185 3184 3184 3184 3183 3183 3182 3182 3181 3181 3181 3180 3180 3179
3208 3208 3208 3208 3208 3208 3209 3209 3209 3209 3209 3209 3209 3209 3209 3209 3209 3209 3209 3208 3208 3208 3208 3208 3207 3207 3207 3207 3207 3206 3206 3206 3205 3205 3205 3204 3204 3203 3203 3202 3202 3202 3202 3202 3202 3201 3201 3201 3201 3200 3200 3200 3200 3200 3200 3199 3199 3199 3198 3198 3197 3197 3197 3196 3196 3196 3195 3195 3194 3193 3193 3192 3192 3191 3191 3190 3190 3189 3188 3188 3188 3187 3187 3186 3186 3186 3185 3185 3184 3184 3184 3183 3183 3182 3182 3182 3181 3181 3180 3180 3179 3179 3178
3208 3208 3208 3208 3208 3208 3208 3209 3209 3209 3209 3209 3209 3209 3209 3208 3208 3208 3208 3208 3208 3208 3208 3208 3207 3207 3207 3207 3206 3206 3206 3205 3205 3205 3204 3204 3203 3203 3202 3202 3202 3202 3201 3201 3201 3201 3200 3200 3200 3200 3199 3199 3199 3199 3199 3199 3198 3198 3197 3197 3197 3196 3196 3195 3195 3195 3194 3194 3193 3193 3192 3192 3191 3191 3190 3189 3189 3188 3187 3187 3187 3186 3186 3185 3185 3185 3184 3184 3184 3183 3183 3182 3182 3182 3181 3181 3181 3180 3180 3179 3179 3178 3178
3207 3208 3208 3208 3208 3208 3208 3208 3208 3208 3208 3208 3208 3208 3208 3208 3208 3208 3208 3208 3208 3208 3207 3207 3207 3207 3207 3206 3206 3206 3205 3205 3205 3204 3204 3203 3203 3202 3202 3202 3201 3201 3201 3200 3200 3200 3200 3199 3199 3199 3199 3198 3198 3198 3198 3198 3197 3197 3197 3196 3196 3195 3195 3194 3194 3193 3193 3193 3192 3192 3192 3191 3191 3190 3189 3189 3188 3187 3187 3186 3186 3185 3185 3184 3184 3183 3183 3183 3182 3182 3182 3182 3181 3181 3181 3180 3180 3179 3179 3178 3178 3177 3177
3207 3207 3207 3208 3208 3208 3208 3208 3208 3208 3208 3208 3208 3208 3208 3208 3208 3208 3207 3207 3207 3207 3207 3207 3207 3207 3206 3206 3206 3205 3205 3205 3204 3204 3203 3203 3203 3202 3202 3201 3201 3200 3200 3200 3199 3199 3199 3198 3198 3198 3198 3197 3197 3197 3197 3197 3197 3196 3196 3195 3195 3194 3194 3193 3193 3192 3192 3192 3191 3191 3190 3190 3190 3189 3189 3188 3187 3187 3186 3185 3185 3184 3184 3183 3183 3182 3182 3182 3182 3181 3181 3181 3180 3180 3180 3179 3179 3178 3178 3177 3177 3177 3176
3207 3207 3207 3207 3207 3207 3207 3207 3207 3207 3207 3207 3207 3207 3207 3207 3207 3207 3207 3207 3207 3207 3207 3207 3206 3206 3206 3206 3205 3205 3204 3204 3204 3203 3203 3202 3202 3202 3201 3201 3200 3200 3199 3199 3199 3198 3198 3198 3197 3197 3197 3197 3197 3197 3196 3196 3196 3195 3195 3194 3194 3193 3193 3192 3192 3192 3191 3190 3190 3189 3189 3189 3188 3188 3187 3187 3187 3186 3185 3184 3184 3183 3183 3182 3182 3182 3181 3181 3180 3180 3180 3179 3179 3179 3178 3178 3178 3177 3177 3177 3176 3176 3175
3206 3206 3206 3206 3207 3207 3207 3207 3207 3207 3207 3207 3207 3207 3207 3207 3207 3207 3207 3206 3206 3206 3206 3206 3206 3205 3205 3205 3204 3204 3204 3203 3203 3202 3202 3202 3202 3201 3201 3200 3200 3199 3199 3198 3198 3197 3197 3197 3197 3197 3196 3196 3196 3196 3195 3195 3195 3194 3194 3193 3193 3192 3192 3191 3191 3190 3190 3189 3189 3188 3188 3187 3187 3186 3186 3186 3186 3185 3185 3184 3183 3182 3182 3181 3181 3181 3180 3180 3179 3179 3178 3178 3178 3177 3177 3177 3177 3176 3176 3176 3175 3175 3174
3205 3206 3206 3206 3206 3206 3206 3206 3206 3206 3206 3206 3206 3206 3206 3206 3206 3206 3206 3206 3205 3205 3205 3205 3205 3204 3204 3204 3203 3203 3203 3202 3202 3202 3201 3201 3201 3200 3200 3199 3199 3198 3198 3197 3197 3197 3197 3196 3196 3196 3195 3195 3195 3194 3194 3194 3194 3193 3193 3192 3192 3192 3191 3190 3190 3189 3189 3188 3187 3187 3187 3186 3186 3185 3185 3184 3184 3184 3183 3183 3182 3182 3181 3181 3180 3180 3179 3179 3178 3178 3177 3177 3177 3177 3176 3176 3176 3175 3175 3175 3174 3174 3173
3205 3205 3205 3205 3205 3205 3205 3205 3205 3205 3205 3205 3205 3205 3205 3205 3205 3205 3205 3205 3204 3204 3204 3204 3204 3203 3203 3203 3202 3202 3202 3202 3201 3201 3200 3200 3200 3199 3199 3198 3198 3197 3197 3197 3196 3196 3196 3195 3195 3195 3194 3194 3194 3193 3193 3193 3193 3192 3192 3191 3191 3190 3190 3189 3189 3188 3187 3187 3187 3186 3185 3185 3184 3184 3183 3183 3182 3182 3182 3182 3182 3181 3181 3180 3179 3179 3178 3178 3177 3177 3177 3176 3176 3175 3175 3175 3174 3174 3174 3173 3173 3172 3172
3204 3204 3204 3204 3204 3204 3204 3204 3204 3204 3204 3204 3204 3204 3204 3204 3204 3204 3204 3204 3204 3203 3203 3203 3203 3202 3202 3202 3202 3201 3201 3201 3200 3200 3199 3199 3199 3198 3198 3197 3197 3197 3196 3196 3195 3195 3194 3194 3194 3193 3193 3193 3192 3192 3192 3192 3192 3191 3191 3190 3190 3189 3188 3188 3187 3187 3186 3186 3185 3185 3184 3184 3183 3183 3182 3182 3182 3181 3181 3181 3180 3180 3180 3179 3179 3178 3177 3177 3177 3176 3176 3175 3175 3174 3174 3173 3173 3173 3172 3172 3172 3172 3171
3203 3204 3204 3204 3204 3204 3204 3204 3204 3204 3204 3204 3204 3203 3203 3203 3203 3203 3203 3203 3203 3202 3202 3202 3202 3201 3201 3201 3200 3200 3200 3199 3199 3199 3198 3198 3197 3197 3197 3196 3196 3195 3195 3195 3194 3194 3193 3193 3193 3192 3192 3192 3191 3191 3190 3190 3190 3190 3189 3189 3188 3188 3187 3187 3186 3186 3185 3185 3184 3183 3183 3182 3182 3182 3181 3181 3180 3180 3180 3179 3179 3179 3178 3178 3178 3177 3177 3177 3176 3176 3175 3174 3174 3173 3173 3172 3172 3172 3171 3171 3171 3170 3170
3203 3203 3203 3203 3203 3203 3203 3203 3203 3203 3203 3203 3203 3203 3203 3202 3202 3202 3202 3202 3202 3202 3201 3201 3201 3200 3200 3200 3199 3199 3198 3198 3198 3197 3197 3197 3196 3196 3196 3195 3195 3194 3194 3193 3193 3193 3192 3192 3192 3191 3191 3190 3190 3189 3189 3189 3189 3188 3188 3187 3187 3187 3186 3186 3185 3184 3184 3183 3183 3182 3182 3182 3181 3181 3180 3180 3179 3179 3178 3178 3178 3177 3177 3177 3177 3177 3176 3176 3175 3175 3174 3174 3173 3172 3172 3171 3171 3170 3170 3169 3169 3168 3168
3202 3202 3202 3202 3202 3202 3202 3202 3202 3202 3202 3202 3202 3202 3202 3202 3202 3202 3201 3201 3201 3201 3200 3200 3200 3199 3199 3198 3198 3198 3197 3197 3197 3196 3196 3195 3195 3195 3194 3194 3194 3193 3193 3192 3192 3192 3191 3191 3191 3190 3190 3189 3189 3188 3187 3187 3187 3187 3187 3186 3186 3185 3185 3184 3184 3183 3182 3182 3182 3181 3181 3180 3180 3179 3179 3178 3178 3177 3177 3177 3176 3176 3175 3175 3175 3175 3175 3174 3174 3174 3173 3173 3172 3172 3171 3170 3170 3169 3168 3168 3167 3167 3167
3201 3202 3202 3202 3202 3202 3202 3202 3202 3202 3202 3202 3201 3201 3201 3201 3201 3201 3200 3200 3200 3199 3199 3199 3198 3198 3198 3197 3197 3197 3196 3196 3195 3195 3195 3194 3194 3193 3193 3193 3192 3192 3192 3191 3191 3190 3190 3190 3189 3189 3188 3188 3187 3187 3187 3186 3185 3185 3185 3185 3184 3184 3183 3183 3182 3182 3181 3181 3180 3180 3179 3179 3178 3178 3178 3177 3177 3177 3176 3176 3175 3175 3174 3173 3173 3173 3173 3172 3172 3172 3172 3171 3171 3171 3170 3169 3169 3168 3167 3167 3166 3165 3165
3201 3201 3201 3201 3201 3201 3201 3201 3201 3201 3201 3201 3201 3200 3200 3200 3200 3200 3199 3199 3199 3198 3198 3198 3197 3197 3197 3196 3196 3195 3195 3195 3194 3194 3193 3193 3192 3192 3192 3192 3191 3191 3190 3190 3189 3189 3189 3188 3188 3188 3187 3187 3186 3186 3185 3185 3184 3184 3183 3183 3183 3182 3182 3182 3181 3180 3180 3179 3179 3178 3178 3177 3177 3177 3177 3176 3176 3175 3175 3174 3174 3173 3173 3172 3172 3171 3171 3171 3170 3170 3170 3169 3169 3169 3168 3168 3167 3167 3166 3166 3165 3164 3163
3200 3200 3200 3200 3200 3200 3200 3200 3200 3200 3200 3200 3200 3199 3199 3199 3199 3199 3198 3198 3198 3197 3197 3197 3196 3196 3196 3195 3195 3194 3194 3193 3193 3193 3192 3192 3191 3191 3191 3190 3190 3189 3189 3189 3188 3188 3187 3187 3187 3187 3186 3186 3185 3185 3184 3183 3183 3182 3182 3182 3182 3181 3181 3180 3180 3179 3178 3178 3177 3177 3177 3176 3176 3175 3175 3175 3174 3174 3173 3173 3172 3172 3172 3171 3170 3169 3169 3168 3168 3168 3167 3167 3167 3167 3166 3166 3166 3166 3165 3165 3164 3163 3162
3199 3199 3199 3199 3199 3199 3199 3199 3199 3199 3199 3199 3199 3198 3198 3198 3198 3198 3197 3197 3197 3196 3196 3196 3195 3195 3194 3194 3193 3193 3192 3192 3192 3192 3191 3191 3190 3190 3189 3189 3188 3188 3188 3187 3187 3187 3186 3186 3185 3185 3185 3184 3184 3183 3183 3182 3182 3181 3181 3180 3180 3180 3179 3178 3178 3177 3177 3177 3176 3176 3175 3175 3174 3174 3174 3173 3173 3172 3172 3172 3171 3171 3170 3169 3169 3168 3167 3167 3166 3166 3166 3165 3165 3165 3164 3164 3164 3163 3163 3163 3163 3162 3161
3198 3198 3198 3198 3198 3198 3198 3198 3198 3198 3198 3198 3198 3197 3197 3197 3197 3197 3196 3196 3196 3195 3195 3195 3194 3194 3193 3193 3192 3192 3192 3191 3191 3190 3190 3189 3189 3188 3188 3187 3187 3187 3187 3186 3186 3185 3185 3184 3184 3184 3183 3183 3182 3182 3182 3181 3180 3180 3179 3179 3178 3178 3177 3177 3177 3176 3176 3175 3175 3174 3174 3173 3173 3172 3172 3172 3171 3171 3171 3170 3170 3169 3169 3168 3168 3167 3166 3166 3165 3164 3164 3163 3163 3162 3162 3162 3161 3161 3161 3161 3161 3161 3160
3197 3197 3197 3197 3197 3197 3197 3197 3197 3197 3197 3197 3197 3197 3196 3196 3196 3196 3195 3195 3195 3194 3194 3194 3193 3193 3192 3192 3192 3191 3190 3190 3189 3189 3189 3188 3188 3187 3187 3186 3186 3185 3185 3185 3184 3184 3183 3183 3182 3182 3182 3182 3181 3181 3180 3180 3179 3178 3178 3177 3177 3176 3176 3176 3175 3175 3174 3174 3173 3173 3172 3172 3172 3171 3171 3170 3170 3169 3169 3169 3168 3168 3167 3167 3167 3166 3165 3164 3164 3163 3162 3162 3162 3161 3161 3160 3159 3159 3158 3158 3158 3159 3158
3196 3196 3196 3196 3196 3196 3196 3196 3196 3196 3196 3196 3196 3195 3195 3195 3195 3195 3194 3194 3194 3193 3193 3192 3192 3192 3191 3191 3190 3190 3189 3189 3188 3188 3187 3187 3186 3186 3185 3185 3184 3184 3183 3183 3182 3182 3182 3182 3181 3181 3180 3180 3180 3179 3179 3178 3177 3177 3176 3176 3175 3174 3174 3174 3173 3173 3173 3172 3172 3172 3171 3171 3170 3170 3169 3169 3168 3168 3168 3167 3167 3167 3166 3166 3165 3165 3164 3163 3162 3162 3161 3160 3160 3159 3159 3158 3157 3157 3156 3155 3155 3156 3156
3195 3195 3195 3195 3195 3195 3195 3195 3195 3195 3195 3195 3194 3194 3194 3194 3194 3193 3193 3193 3193 3192 3192 3192 3191 3190 3190 3189 3189 3188 3188 3187 3187 3186 3186 3185 3185 3184 3183 3183 3183 3182 3182 3182 3181 3181 3180 3180 3180 3179 3179 3178 3178 3177 3177 3177 3176 3175 3175 3174 3173 3173 3172 3172 3172 3172 3171 3171 3171 3170 3170 3169 3169 3168 3168 3167 3167 3167 3166 3166 3165 3165 3164 3164 3163 3163 3162 3162 3161 3161 3160 3159 3158 3158 3157 3157 3156 3155 3154 3153 3153 3153 3153
3194 3194 3194 3194 3194 3194 3194 3194 3194 3194 3194 3194 3193 3193 3193 3193 3193 3192 3192 3192 3192 3191 3191 3190 3190 3189 3188 3188 3187 3187 3186 3186 3186 3185 3184 3184 3183 3183 3182 3182 3181 3181 3181 3180 3180 3179 3179 3178 3178 3178 3177 3177 3176 3176 3176 3175 3174 3174 3173 3172 3172 3172 3171 3171 3170 3170 3169 3169 3169 3169 3168 3168 3167 3167 3167 3166 3166 3166 3165 3165 3164 3163 3163 3162 3162 3162 3161 3160 3160 3159 3159 3158 3157 3156 3156 3155 3154 3154 3152 3152 3151 3151 3151
3192 3193 3193 3193 3193 3193 3193 3193 3193 3193 3193 3192 3192 3192 3192 3192 3192 3192 3191 3191 3190 3190 3189 3189 3188 3187 3187 3186 3186 3185 3185 3184 3184 3184 3183 3183 3182 3182 3181 3180 3180 3179 3179 3179 3178 3178 3177 3177 3177 3176 3176 3175 3175 3174 3174 3173 3173 3172 3172 3171 3171 3170 3169 3169 3169 3168 3168 3167 3167 3167 3167 3167 3166 3166 3165 3165 3165 3164 3164 3163 3163 3162 3162 3161 3161 3160 3159 3159 3158 3158 3157 3157 3156 3155 3154 3154 3153 3152 3152 3150 3149 3148 3148
3192 3192 3192 3192 3192 3192 3192 3192 3192 3192 3192 3192 3191 3191 3191 3191 3191 3190 3190 3190 3189 3189 3188 3188 3187 3187 3186 3185 3184 3184 3183 3183 3182 3182 3182 3182 3181 3181 3180 3179 3179 3178 3178 3177 3177 3176 3176 3176 3175 3175 3174 3174 3173 3173 3172 3172 3171 3171 3170 3170 3169 3168 3168 3168 3167 3167 3167 3166 3166 3165 3165 3165 3165 3164 3164 3163 3163 3163 3162 3162 3162 3161 3160 3160 3159 3158 3158 3157 3157 3156 3156 3155 3154 3154 3153 3152 3152 3151 3150 3149 3148 3147 3147
3190 3190 3191 3191 3191 3191 3191 3191 3191 3191 3191 3190 3190 3190 3190 3190 3189 3189 3189 3188 3188 3187 3187 3187 3186 3185 3185 3184 3183 3183 3182 3182 3181 3181 3180 3180 3180 3179 3179 3178 3177 3177 3176 3176 3175 3175 3175 3174 3174 3173 3173 3172 3172 3171 3171 3170 3170 3169 3169 3168 3168 3167 3167 3167 3166 3166 3165 3165 3164 3164 3164 3164 3163 3163 3162 3162 3162 3161 3161 3161 3160 3159 3159 3158 3157 3157 3156 3156 3155 3154 3154 3153 3153 3152 3152 3151 3150 3150 3149 3148 3147 3146 3145
3189 3189 3189 3189 3189 3190 3190 3190 3189 3189 3189 3189 3189 3189 3189 3188 3188 3188 3187 3187 3187 3186 3186 3185 3185 3184 3184 3183 3182 3182 3182 3181 3180 3179 3179 3178 3178 3178 3177 3177 3176 3176 3175 3175 3174 3174 3173 3173 3172 3172 3172 3171 3171 3170 3169 3169 3168 3168 3167 3167 3166 3166 3166 3165 3165 3164 3164 3164 3163 3163 3162 3162 3162 3162 3161 3161 3160 3160 3159 3159 3158 3158 3157 3157 3156 3155 3155 3154 3153 3153 3152 3152 3151 3151 3150 3149 3149 3148 3147 3147 3146 3144 3143
3188 3188 3188 3188 3188 3188 3188 3188 3188 3188 3188 3188 3188 3188 3187 3187 3187 3187 3186 3186 3185 3185 3184 3184 3183 3183 3183 3182 3182 3181 3181 3180 3179 3179 3178 3177 3177 3176 3176 3175 3175 3174 3174 3173 3173 3172 3172 3172 3171 3171 3170 3170 3169 3169 3168 3167 3167 3166 3166 3165 3165 3165 3164 3164 3163 3163 3163 3162 3162 3162 3161 3161 3161 3160 3160 3160 3159 3158 3158 3157 3157 3156 3156 3155 3154 3154 3153 3152 3152 3151 3151 3150 3149 3149 3148 3148 3147 3147 3146 3145 3145 3143 3142
3187 3187 3187 3187 3187 3187 3187 3187 3187 3187 3187 3187 3187 3187 3186 3186 3185 3185 3185 3184 3184 3184 3183 3182 3182 3182 3182 3181 3181 3180 3179 3179 3178 3178 3177 3177 3176 3175 3175 3174 3173 3173 3172 3172 3172 3171 3171 3170 3170 3169 3169 3168 3168 3167 3167 3166 3166 3165 3165 3165 3164 3164 3163 3163 3162 3162 3162 3162 3161 3161 3160 3160 3159 3159 3158 3158 3157 3157 3157 3156 3155 3155 3154 3153 3152 3152 3152 3151 3150 3149 3149 3148 3148 3147 3147 3146 3146 3145 3145 3144 3143 3142 3142
3186 3186 3186 3186 3186 3186 3186 3186 3186 3186 3186 3186 3185 3185 3185 3184 3184 3184 3183 3183 3182 3182 3182 3181 3181 3180 3180 3180 3179 3179 3178 3178 3177 3177 3176 3175 3175 3174 3173 3173 3172 3172 3171 3171 3171 3170 3169 3169 3168 3168 3167 3167 3167 3166 3166 3165 3165 3164 3164 3163 3163 3162 3162 3162 3161 3161 3161 3160 3160 3160 3159 3159 3158 3158 3157 3157 3156 3156 3155 3155 3154 3153 3152 3152 3151 3150 3150 3149 3148 3148 3147 3147 3146 3146 3145 3145 3144 3144 3143 3142 3142 3141 3140
3184 3184 3185 3184 3184 3184 3184 3184 3184 3184 3184 3184 3184 3184 3183 3183 3182 3182 3182 3181 3181 3181 3180 3180 3179 3179 3178 3178 3177 3177 3177 3176 3176 3175 3174 3174 3173 3172 3172 3171 3171 3170 3170 3170 3170 3169 3168 3167 3167 3167 3166 3166 3165 3165 3164 3164 3163 3163 3162 3162 3162 3161 3161 3160 3160 3160 3159 3159 3159 3158 3158 3157 3157 3157 3156 3155 3155 3154 3153 3153 3152 3152 3151 3150 3149 3149 3148 3147 3147 3146 3146 3145 3144 3144 3143 3143 3142 3142 3142 3141 3140 3140 3139
3183 3183 3183 3183 3183 3183 3183 3182 3182 3182 3183 3182 3182 3182 3182 3182 3181 3181 3180 3180 3179 3179 3179 3178 3178 3177 3177 3176 3175 3175 3174 3174 3174 3174 3173 3172 3172 3171 3170 3169 3169 3168 3168 3168 3168 3168 3167 3167 3166 3165 3165 3164 3164 3163 3163 3163 3162 3162 3161 3161 3160 3160 3159 3159 3159 3158 3158 3158 3157 3157 3157 3156 3156 3155 3155 3154 3153 3152 3152 3151 3151 3150 3150 3149 3148 3147 3147 3146 3145 3144 3144 3143 3143 3142 3142 3141 3141 3140 3140 3139 3139 3138 3137
3182 3182 3182 3182 3182 3181 3181 3181 3181 3181 3181 3181 3181 3181 3180 3180 3179 3179 3178 3178 3177 3177 3177 3177 3177 3176 3175 3174 3174 3173 3172 3171 3171 3172 3172 3171 3171 3170 3169 3168 3168 3167 3166 3165 3165 3166 3166 3166 3165 3164 3163 3163 3162 3162 3162 3162 3161 3161 3160 3160 3159 3158 3158 3157 3157 3157 3157 3156 3156 3156 3155 3155 3154 3154 3153 3152 3152 3151 3150 3150 3149 3148 3147 3147 3147 3146 3146 3145 3144 3143 3142 3142 3141 3141 3140 3140 3139 3138 3138 3137 3137 3136 3136
3181 3181 3180 3180 3180 3180 3180 3179 3179 3179 3179 3179 3179 3179 3179 3178 3178 3177 3177 3177 3176 3176 3175 3175 3175 3175 3174 3174 3173 3172 3171 3170 3169 3170 3170 3169 3169 3168 3167 3167 3167 3167 3167 3165 3163 3163 3164 3164 3163 3163 3162 3162 3161 3161 3161 3160 3160 3159 3159 3158 3158 3157 3157 3156 3156 3156 3155 3155 3155 3154 3154 3153 3153 3152 3152 3151 3150 3150 3149 3148 3147 3147 3146 3145 3144 3144 3144 3143 3142 3142 3141 3140 3140 3139 3139 3138 3137 3137 3136 3136 3135 3134 3134
3179 3179 3179 3179 3178 3178 3178 3178 3178 3178 3178 3178 3178 3177 3177 3177 3177 3176 3176 3176 3175 3174 3174 3173 3173 3173 3173 3172 3172 3172 3171 3169 3168 3168 3169 3168 3167 3167 3166 3166 3166 3165 3165 3164 3163 3162 3162 3162 3162 3161 3160 3160 3160 3160 3159 3159 3158 3158 3157 3157 3157 3156 3155 3155 3155 3154 3154 3153 3153 3153 3153 3152 3152 3151 3150 3150 3149 3148 3147 3147 3146 3145 3144 3143 3142 3142 3142 3141 3141 3140 3139 3139 3138 3137 3137 3137 3136 3135 3134 3134 3133 3132 3132
3177 3177 3177 3177 3177 3177 3177 3176 3176 3176 3176 3176 3177 3176 3176 3176 3175 3175 3175 3174 3174 3173 3172 3172 3172 3171 3171 3170 3170 3170 3169 3168 3168 3167 3167 3167 3167 3166 3165 3165 3164 3165 3165 3164 3162 3162 3162 3160 3159 3158 3159 3159 3159 3158 3158 3157 3157 3157 3156 3156 3155 3155 3154 3154 3153 3153 3152 3152 3152 3152 3151 3151 3150 3150 3149 3148 3147 3147 3146 3145 3144 3143 3142 3142 3141 3140 3140 3139 3138 3138 3137 3137 3137 3136 3135 3135 3134 3133 3132 3132 3131 3131 3130
3176 3176 3176 3176 3176 3175 3175 3175 3175 3174 3174 3175 3175 3175 3175 3174 3174 3173 3173 3173 3173 3172 3172 3171 3171 3170 3169 3169 3168 3167 3167 3166 3166 3166 3166 3166 3165 3165 3164 3163 3163 3163 3163 3162 3162 3161 3162 3160 3158 3156 3156 3157 3157 3157 3157 3157 3156 3155 3155 3154 3154 3153 3153 3152 3152 3152 3151 3151 3150 3150 3150 3149 3149 3148 3147 3147 3146 3145 3144 3143 3143 3142 3141 3140 3139 3138 3137 3137 3136 3136 3136 3135 3134 3134 3133 3132 3132 3132 3131 3130 3129 3129 3128
3174 3174 3174 3174 3174 3174 3174 3173 3173 3173 3173 3173 3173 3173 3173 3173 3172 3172 3172 3171 3171 3171 3170 3170 3169 3169 3169 3168 3167 3167 3166 3164 3163 3164 3164 3164 3164 3164 3163 3162 3162 3162 3162 3161 3161 3160 3160 3160 3158 3156 3154 3155 3155 3156 3156 3156 3155 3154 3154 3153 3152 3152 3152 3151 3151 3150 3150 3149 3149 3149 3148 3148 3147 3147 3146 3145 3144 3143 3143 3142 3141 3140 3139 3138 3137 3136 3136 3135 3134 3134 3133 3133 3133 3132 3131 3131 3130 3129 3129 3128 3127 3127 3127
3173 3173 3173 3173 3172 3172 3172 3172 3172 3172 3171 3171 3171 3172 3172 3172 3171 3171 3170 3169 3169 3168 3168 3168 3167 3167 3167 3167 3166 3166 3165 3163 3162 3162 3162 3162 3162 3162 3162 3162 3161 3161 3161 3160 3160 3160 3159 3158 3158 3157 3154 3153 3153 3153 3153 3154 3154 3153 3152 3152 3152 3151 3150 3150 3150 3149 3149 3148 3148 3147 3147 3147 3146 3145 3144 3143 3143 3142 3141 3140 3140 3139 3138 3137 3136 3134 3134 3133 3132 3132 3132 3132 3131 3130 3129 3129 3128 3127 3127 3126 3126 3125 3124
3171 3171 3171 3171 3171 3171 3170 3170 3170 3170 3169 3169 3169 3169 3170 3170 3170 3169 3169 3168 3167 3167 3166 3165 3165 3165 3165 3165 3164 3164 3164 3163 3161 3160 3160 3160 3160 3160 3160 3160 3160 3160 3159 3159 3159 3158 3157 3157 3157 3157 3154 3153 3152 3152 3152 3152 3152 3152 3152 3151 3151 3150 3149 3149 3148 3148 3147 3147 3147 3146 3146 3146 3145 3144 3143 3142 3141 3140 3140 3139 3138 3137 3136 3135 3134 3133 3132 3132 3131 3130 3130 3130 3129 3128 3127 3127 3126 3126 3125 3124 3124 3123 3122
3169 3169 3169 3169 3169 3169 3169 3168 3168 3168 3167 3167 3166 3167 3167 3168 3168 3168 3167 3167 3166 3165 3164 3163 3163 3163 3163 3163 3162 3162 3162 3162 3161 3159 3157 3158 3158 3158 3158 3158 3157 3157 3157 3157 3157 3157 3156 3155 3156 3155 3154 3152 3152 3151 3151 3150 3150 3151 3151 3150 3150 3149 3148 3148 3147 3147 3146 3146 3146 3145 3144 3144 3143 3142 3141 3140 3139 3138 3138 3137 3136 3135 3134 3133 3132 3131 3130 3130 3129 3129 3128 3128 3127 3126 3126 3125 3125 3124 3123 3123 3122 3122 3121
3167 3168 3168 3167 3167 3167 3167 3167 3166 3166 3166 3165 3164 3164 3165 3166 3166 3166 3166 3165 3164 3163 3163 3162 3161 3161 3161 3161 3161 3161 3160 3160 3160 3158 3156 3156 3157 3157 3157 3156 3156 3155 3155 3155 3154 3154 3154 3153 3153 3154 3153 3152 3150 3150 3150 3149 3149 3149 3149 3149 3149 3148 3147 3147 3146 3146 3145 3145 3145 3144 3143 3142 3142 3141 3140 3139 3137 3137 3136 3135 3134 3133 3132 3131 3130 3129 3129 3128 3128 3127 3127 3126 3125 3125 3124 3123 3123 3122 3122 3121 3120 3120 3119
3166 3166 3166 3166 3166 3165 3165 3165 3164 3164 3163 3163 3162 3162 3162 3163 3164 3164 3164 3163 3163 3162 3161 3160 3159 3159 3159 3159 3159 3159 3158 3158 3158 3157 3156 3155 3155 3155 3156 3155 3154 3154 3153 3153 3152 3152 3152 3152 3152 3152 3151 3150 3150 3149 3148 3148 3148 3148 3147 3148 3147 3147 3146 3145 3145 3144 3144 3144 3144 3143 3142 3141 3140 3139 3138 3137 3136 3135 3134 3133 3132 3132 3130 3130 3129 3128 3127 3127 3126 3126 3125 3125 3124 3123 3122 3122 3121 3121 3120 3119 3119 3118 3117
3164 3164 3164 3164 3164 3164 3163 3163 3163 3162 3162 3161 3161 3161 3161 3161 3161 3162 3162 3161 3161 3160 3159 3159 3158 3157 3157 3157 3157 3157 3156 3156 3156 3155 3154 3154 3153 3153 3153 3153 3153 3152 3152 3152 3151 3151 3150 3150 3149 3149 3149 3148 3148 3149 3148 3147 3147 3146 3145 3146 3146 3146 3145 3144 3144 3143 3143 3143 3142 3141 3140 3139 3138 3137 3137 3136 3134 3133 3132 3132 3131 3130 3129 3128 3127 3126 3126 3125 3124 3124 3124 3123 3122 3122 3121 3120 3120 3119 3118 3118 3117 3116 3116